Location: Newark
(29.9790°N, 31.1340°E)
Time: 00:00:14
(UTC+00:00)

Vanguard 3 - Pass Details

Date: 24 January 2021
Orbit: 508 x 3262 km, 33.4° (Epoch: 06 March)

Event Time Altitude Azimuth Distance (km) Brightness Sun altitude
Exits shadow 02:10:34 78° 358° (N) 1,390 8.1 -34.3°
Drops below altitude 10° 02:22:31 10° 78° (ENE) 4,719 11.8 -31.7°
Sets 02:27:17 0° 79° (E) 6,159 12.7 -30.7°
